Terminal Aerodrome Forecast
Issued by NWS Knoxville/Tri Cities, TN

Home | Current Version | Previous Version | Text Only | Print | Product List | Glossary On
Versions: 1 2 3 4 5 6 7 8 9 10 11 12 13 14 15 16 17 18 19 20 21 22 23 24 25 26 27 28 29 30 31 32 33 34
000
FTUS44 KMRX 201122
TAFTRI
TAF
KTRI 201122Z 2012/2112 VRB02KT P6SM -SHRASN BKN035 OVC070
     FM201400 VRB04KT P6SM BKN040
     FM210000 00000KT P6SM SCT100
     FM210500 00000KT 3SM BR FEW005
     FM210800 00000KT 3/4SM BR BKN002=

USA.gov is the U.S. government's official web portal to all federal, state and local government web resources and services.